Location: Unspecified
(48.8656°N, 0.0000°E)
Time: 02:17:49
(UTC+00:00)

Transit 2A Rocket - Pass Details

Date: 25 June 2019
Orbit: 588 x 915 km, 66.7° (Epoch: 16 July)

Event Time Altitude Azimuth Distance (km) Brightness Sun altitude
Rises 13:33:42 0° 301° (WNW) 3,488 8.5 58.8°
Reaches altitude 10° 13:37:59 10° 330° (NNW) 2,489 7.7 58.3°
Maximum altitude 13:40:22 13° 354° (N) 2,270 7.4 58.1°
Drops below altitude 10° 13:42:42 10° 19° (NNE) 2,404 7.4 57.8°
Sets 13:46:40 0° 49° (NE) 3,250 7.9 57.3°
